<?xml version="1.0" encoding="UTF-8" standalone="no" ?>
<gpx xmlns="http://www.topografix.com/GPX/1/1" xmlns:xsi="http://www.w3.org/2001/XMLSchema-instance" xsi:schemaLocation="http://www.topografix.com/GPX/1/1 http://www.topografix.com/GPX/1/1/gpx.xsd" version="1.1" creator="VisuGPX - https://www.visugpx.com">
  <metadata>
    <name>sortie boucle des templiers</name>
    <desc><![CDATA[Départ du parking de la mairie de Ste-Colombe-la-Commanderie.]]></desc>
  </metadata>
  <trk>
    <name><![CDATA[track]]></name>
    <trkseg>
      <trkpt lat="49.10201" lon="0.9382">
        <ele>140</ele>
        <time>2008-01-22T00:00:00Z</time>
      </trkpt>
      <trkpt lat="49.10202" lon="0.93802">
        <ele>140</ele>
        <time>2008-01-22T00:00:00Z</time>
      </trkpt>
      <trkpt lat="49.10185" lon="0.93789">
        <ele>140</ele>
        <time>2008-01-22T00:00:00Z</time>
      </trkpt>
      <trkpt lat="49.10163" lon="0.9376">
        <ele>140</ele>
        <time>2008-01-22T00:00:00Z</time>
      </trkpt>
      <trkpt lat="49.10154" lon="0.93736">
        <ele>140</ele>
        <time>2008-01-22T00:00:00Z</time>
      </trkpt>
      <trkpt lat="49.10141" lon="0.93639">
        <ele>141</ele>
        <time>2008-01-22T00:00:00Z</time>
      </trkpt>
      <trkpt lat="49.10133" lon="0.93585">
        <ele>141</ele>
        <time>2008-01-22T00:00:00Z</time>
      </trkpt>
      <trkpt lat="49.1005" lon="0.9363">
        <ele>140</ele>
        <time>2008-01-22T00:00:00Z</time>
      </trkpt>
      <trkpt lat="49.10037" lon="0.93629">
        <ele>140</ele>
        <time>2008-01-22T00:00:00Z</time>
      </trkpt>
      <trkpt lat="49.10024" lon="0.93622">
        <ele>140</ele>
        <time>2008-01-22T00:00:00Z</time>
      </trkpt>
      <trkpt lat="49.09987" lon="0.93576">
        <ele>139</ele>
        <time>2008-01-22T00:00:00Z</time>
      </trkpt>
      <trkpt lat="49.09872" lon="0.93501">
        <ele>138</ele>
        <time>2008-01-22T00:00:00Z</time>
      </trkpt>
      <trkpt lat="49.09857" lon="0.93503">
        <ele>138</ele>
        <time>2008-01-22T00:00:00Z</time>
      </trkpt>
      <trkpt lat="49.09821" lon="0.93512">
        <ele>137</ele>
        <time>2008-01-22T00:00:00Z</time>
      </trkpt>
      <trkpt lat="49.09773" lon="0.93537">
        <ele>137</ele>
        <time>2008-01-22T00:00:00Z</time>
      </trkpt>
      <trkpt lat="49.09724" lon="0.93569">
        <ele>136</ele>
        <time>2008-01-22T00:00:00Z</time>
      </trkpt>
      <trkpt lat="49.09632" lon="0.93651">
        <ele>135</ele>
        <time>2008-01-22T00:00:00Z</time>
      </trkpt>
      <trkpt lat="49.09595" lon="0.93684">
        <ele>137</ele>
        <time>2008-01-22T00:00:00Z</time>
      </trkpt>
      <trkpt lat="49.09489" lon="0.93818">
        <ele>140</ele>
        <time>2008-01-22T00:00:00Z</time>
      </trkpt>
      <trkpt lat="49.09432" lon="0.93886">
        <ele>139</ele>
        <time>2008-01-22T00:00:00Z</time>
      </trkpt>
      <trkpt lat="49.09392" lon="0.93914">
        <ele>139</ele>
        <time>2008-01-22T00:00:00Z</time>
      </trkpt>
      <trkpt lat="49.09339" lon="0.93936">
        <ele>139</ele>
        <time>2008-01-22T00:00:00Z</time>
      </trkpt>
      <trkpt lat="49.09312" lon="0.93949">
        <ele>139</ele>
        <time>2008-01-22T00:00:00Z</time>
      </trkpt>
      <trkpt lat="49.09282" lon="0.93975">
        <ele>138</ele>
        <time>2008-01-22T00:00:00Z</time>
      </trkpt>
      <trkpt lat="49.09243" lon="0.94019">
        <ele>138</ele>
        <time>2008-01-22T00:00:00Z</time>
      </trkpt>
      <trkpt lat="49.0922" lon="0.94041">
        <ele>138</ele>
        <time>2008-01-22T00:00:00Z</time>
      </trkpt>
      <trkpt lat="49.09173" lon="0.94075">
        <ele>138</ele>
        <time>2008-01-22T00:00:00Z</time>
      </trkpt>
      <trkpt lat="49.09155" lon="0.94093">
        <ele>138</ele>
        <time>2008-01-22T00:00:00Z</time>
      </trkpt>
      <trkpt lat="49.09138" lon="0.94093">
        <ele>138</ele>
        <time>2008-01-22T00:00:00Z</time>
      </trkpt>
      <trkpt lat="49.09124" lon="0.94072">
        <ele>136</ele>
        <time>2008-01-22T00:00:00Z</time>
      </trkpt>
      <trkpt lat="49.091" lon="0.94029">
        <ele>136</ele>
        <time>2008-01-22T00:00:00Z</time>
      </trkpt>
      <trkpt lat="49.09083" lon="0.93986">
        <ele>135</ele>
        <time>2008-01-22T00:00:00Z</time>
      </trkpt>
      <trkpt lat="49.09074" lon="0.9397">
        <ele>134</ele>
        <time>2008-01-22T00:00:00Z</time>
      </trkpt>
      <trkpt lat="49.09055" lon="0.93953">
        <ele>134</ele>
        <time>2008-01-22T00:00:00Z</time>
      </trkpt>
      <trkpt lat="49.09048" lon="0.93938">
        <ele>134</ele>
        <time>2008-01-22T00:00:00Z</time>
      </trkpt>
      <trkpt lat="49.09045" lon="0.93908">
        <ele>134</ele>
        <time>2008-01-22T00:00:00Z</time>
      </trkpt>
      <trkpt lat="49.09039" lon="0.9389">
        <ele>134</ele>
        <time>2008-01-22T00:00:00Z</time>
      </trkpt>
      <trkpt lat="49.09023" lon="0.93858">
        <ele>134</ele>
        <time>2008-01-22T00:00:00Z</time>
      </trkpt>
      <trkpt lat="49.09014" lon="0.93824">
        <ele>134</ele>
        <time>2008-01-22T00:00:00Z</time>
      </trkpt>
      <trkpt lat="49.08963" lon="0.93566">
        <ele>136</ele>
        <time>2008-01-22T00:00:00Z</time>
      </trkpt>
      <trkpt lat="49.08942" lon="0.93435">
        <ele>137</ele>
        <time>2008-01-22T00:00:00Z</time>
      </trkpt>
      <trkpt lat="49.08928" lon="0.93325">
        <ele>138</ele>
        <time>2008-01-22T00:00:00Z</time>
      </trkpt>
      <trkpt lat="49.08929" lon="0.93305">
        <ele>138</ele>
        <time>2008-01-22T00:00:00Z</time>
      </trkpt>
      <trkpt lat="49.08933" lon="0.93284">
        <ele>138</ele>
        <time>2008-01-22T00:00:00Z</time>
      </trkpt>
      <trkpt lat="49.0896" lon="0.93207">
        <ele>137</ele>
        <time>2008-01-22T00:00:00Z</time>
      </trkpt>
      <trkpt lat="49.08964" lon="0.93186">
        <ele>137</ele>
        <time>2008-01-22T00:00:00Z</time>
      </trkpt>
      <trkpt lat="49.08964" lon="0.93159">
        <ele>137</ele>
        <time>2008-01-22T00:00:00Z</time>
      </trkpt>
      <trkpt lat="49.0896" lon="0.93045">
        <ele>136</ele>
        <time>2008-01-22T00:00:00Z</time>
      </trkpt>
      <trkpt lat="49.08956" lon="0.93011">
        <ele>136</ele>
        <time>2008-01-22T00:00:00Z</time>
      </trkpt>
      <trkpt lat="49.08944" lon="0.92951">
        <ele>136</ele>
        <time>2008-01-22T00:00:00Z</time>
      </trkpt>
      <trkpt lat="49.0894" lon="0.92913">
        <ele>136</ele>
        <time>2008-01-22T00:00:00Z</time>
      </trkpt>
      <trkpt lat="49.0896" lon="0.928">
        <ele>135</ele>
        <time>2008-01-22T00:00:00Z</time>
      </trkpt>
      <trkpt lat="49.08969" lon="0.92685">
        <ele>135</ele>
        <time>2008-01-22T00:00:00Z</time>
      </trkpt>
      <trkpt lat="49.08968" lon="0.9265">
        <ele>136</ele>
        <time>2008-01-22T00:00:00Z</time>
      </trkpt>
      <trkpt lat="49.08963" lon="0.92614">
        <ele>136</ele>
        <time>2008-01-22T00:00:00Z</time>
      </trkpt>
      <trkpt lat="49.08954" lon="0.9258">
        <ele>136</ele>
        <time>2008-01-22T00:00:00Z</time>
      </trkpt>
      <trkpt lat="49.08931" lon="0.92514">
        <ele>136</ele>
        <time>2008-01-22T00:00:00Z</time>
      </trkpt>
      <trkpt lat="49.08915" lon="0.92461">
        <ele>136</ele>
        <time>2008-01-22T00:00:00Z</time>
      </trkpt>
      <trkpt lat="49.0891" lon="0.92429">
        <ele>136</ele>
        <time>2008-01-22T00:00:00Z</time>
      </trkpt>
      <trkpt lat="49.08921" lon="0.92221">
        <ele>137</ele>
        <time>2008-01-22T00:00:00Z</time>
      </trkpt>
      <trkpt lat="49.08922" lon="0.92166">
        <ele>138</ele>
        <time>2008-01-22T00:00:00Z</time>
      </trkpt>
      <trkpt lat="49.0892" lon="0.9212">
        <ele>138</ele>
        <time>2008-01-22T00:00:00Z</time>
      </trkpt>
      <trkpt lat="49.08912" lon="0.92074">
        <ele>138</ele>
        <time>2008-01-22T00:00:00Z</time>
      </trkpt>
      <trkpt lat="49.08865" lon="0.91853">
        <ele>140</ele>
        <time>2008-01-22T00:00:00Z</time>
      </trkpt>
      <trkpt lat="49.0871" lon="0.91881">
        <ele>139</ele>
        <time>2008-01-22T00:00:00Z</time>
      </trkpt>
      <trkpt lat="49.08575" lon="0.91745">
        <ele>139</ele>
        <time>2008-01-22T00:00:00Z</time>
      </trkpt>
      <trkpt lat="49.08376" lon="0.91546">
        <ele>143</ele>
        <time>2008-01-22T00:00:00Z</time>
      </trkpt>
      <trkpt lat="49.08335" lon="0.91507">
        <ele>143</ele>
        <time>2008-01-22T00:00:00Z</time>
      </trkpt>
      <trkpt lat="49.08195" lon="0.91401">
        <ele>142</ele>
        <time>2008-01-22T00:00:00Z</time>
      </trkpt>
      <trkpt lat="49.08002" lon="0.91255">
        <ele>141</ele>
        <time>2008-01-22T00:00:00Z</time>
      </trkpt>
      <trkpt lat="49.07984" lon="0.91235">
        <ele>142</ele>
        <time>2008-01-22T00:00:00Z</time>
      </trkpt>
      <trkpt lat="49.07955" lon="0.91175">
        <ele>143</ele>
        <time>2008-01-22T00:00:00Z</time>
      </trkpt>
      <trkpt lat="49.07903" lon="0.91073">
        <ele>145</ele>
        <time>2008-01-22T00:00:00Z</time>
      </trkpt>
      <trkpt lat="49.07851" lon="0.90936">
        <ele>148</ele>
        <time>2008-01-22T00:00:00Z</time>
      </trkpt>
      <trkpt lat="49.07835" lon="0.90906">
        <ele>149</ele>
        <time>2008-01-22T00:00:00Z</time>
      </trkpt>
      <trkpt lat="49.07797" lon="0.9084">
        <ele>151</ele>
        <time>2008-01-22T00:00:00Z</time>
      </trkpt>
      <trkpt lat="49.07782" lon="0.90803">
        <ele>151</ele>
        <time>2008-01-22T00:00:00Z</time>
      </trkpt>
      <trkpt lat="49.07768" lon="0.90734">
        <ele>152</ele>
        <time>2008-01-22T00:00:00Z</time>
      </trkpt>
      <trkpt lat="49.07754" lon="0.90673">
        <ele>153</ele>
        <time>2008-01-22T00:00:00Z</time>
      </trkpt>
      <trkpt lat="49.07737" lon="0.9063">
        <ele>154</ele>
        <time>2008-01-22T00:00:00Z</time>
      </trkpt>
      <trkpt lat="49.07715" lon="0.90586">
        <ele>154</ele>
        <time>2008-01-22T00:00:00Z</time>
      </trkpt>
      <trkpt lat="49.07697" lon="0.9056">
        <ele>154</ele>
        <time>2008-01-22T00:00:00Z</time>
      </trkpt>
      <trkpt lat="49.07674" lon="0.90538">
        <ele>154</ele>
        <time>2008-01-22T00:00:00Z</time>
      </trkpt>
      <trkpt lat="49.07668" lon="0.9053">
        <ele>154</ele>
        <time>2008-01-22T00:00:00Z</time>
      </trkpt>
      <trkpt lat="49.07653" lon="0.90547">
        <ele>154</ele>
        <time>2008-01-22T00:00:00Z</time>
      </trkpt>
      <trkpt lat="49.07632" lon="0.90568">
        <ele>154</ele>
        <time>2008-01-22T00:00:00Z</time>
      </trkpt>
      <trkpt lat="49.07577" lon="0.90609">
        <ele>154</ele>
        <time>2008-01-22T00:00:00Z</time>
      </trkpt>
      <trkpt lat="49.07374" lon="0.90781">
        <ele>152</ele>
        <time>2008-01-22T00:00:00Z</time>
      </trkpt>
      <trkpt lat="49.07309" lon="0.90839">
        <ele>152</ele>
        <time>2008-01-22T00:00:00Z</time>
      </trkpt>
      <trkpt lat="49.07283" lon="0.90858">
        <ele>152</ele>
        <time>2008-01-22T00:00:00Z</time>
      </trkpt>
      <trkpt lat="49.07154" lon="0.90913">
        <ele>152</ele>
        <time>2008-01-22T00:00:00Z</time>
      </trkpt>
      <trkpt lat="49.07084" lon="0.90939">
        <ele>153</ele>
        <time>2008-01-22T00:00:00Z</time>
      </trkpt>
      <trkpt lat="49.07027" lon="0.90949">
        <ele>153</ele>
        <time>2008-01-22T00:00:00Z</time>
      </trkpt>
      <trkpt lat="49.06948" lon="0.9096">
        <ele>153</ele>
        <time>2008-01-22T00:00:00Z</time>
      </trkpt>
      <trkpt lat="49.06814" lon="0.90977">
        <ele>153</ele>
        <time>2008-01-22T00:00:00Z</time>
      </trkpt>
      <trkpt lat="49.06733" lon="0.9099">
        <ele>152</ele>
        <time>2008-01-22T00:00:00Z</time>
      </trkpt>
      <trkpt lat="49.0654" lon="0.91034">
        <ele>152</ele>
        <time>2008-01-22T00:00:00Z</time>
      </trkpt>
      <trkpt lat="49.06356" lon="0.91067">
        <ele>152</ele>
        <time>2008-01-22T00:00:00Z</time>
      </trkpt>
      <trkpt lat="49.0634" lon="0.91063">
        <ele>152</ele>
        <time>2008-01-22T00:00:00Z</time>
      </trkpt>
      <trkpt lat="49.06317" lon="0.90887">
        <ele>152</ele>
        <time>2008-01-22T00:00:00Z</time>
      </trkpt>
      <trkpt lat="49.06311" lon="0.90855">
        <ele>152</ele>
        <time>2008-01-22T00:00:00Z</time>
      </trkpt>
      <trkpt lat="49.06302" lon="0.90831">
        <ele>152</ele>
        <time>2008-01-22T00:00:00Z</time>
      </trkpt>
      <trkpt lat="49.06287" lon="0.90788">
        <ele>152</ele>
        <time>2008-01-22T00:00:00Z</time>
      </trkpt>
      <trkpt lat="49.06282" lon="0.90753">
        <ele>152</ele>
        <time>2008-01-22T00:00:00Z</time>
      </trkpt>
      <trkpt lat="49.06283" lon="0.90686">
        <ele>152</ele>
        <time>2008-01-22T00:00:00Z</time>
      </trkpt>
      <trkpt lat="49.06204" lon="0.907">
        <ele>151</ele>
        <time>2008-01-22T00:00:00Z</time>
      </trkpt>
      <trkpt lat="49.06195" lon="0.91151">
        <ele>151</ele>
        <time>2008-01-22T00:00:00Z</time>
      </trkpt>
      <trkpt lat="49.06197" lon="0.91186">
        <ele>151</ele>
        <time>2008-01-22T00:00:00Z</time>
      </trkpt>
      <trkpt lat="49.06214" lon="0.91202">
        <ele>151</ele>
        <time>2008-01-22T00:00:00Z</time>
      </trkpt>
      <trkpt lat="49.0623" lon="0.91223">
        <ele>151</ele>
        <time>2008-01-22T00:00:00Z</time>
      </trkpt>
      <trkpt lat="49.06239" lon="0.91253">
        <ele>151</ele>
        <time>2008-01-22T00:00:00Z</time>
      </trkpt>
      <trkpt lat="49.06253" lon="0.913">
        <ele>151</ele>
        <time>2008-01-22T00:00:00Z</time>
      </trkpt>
      <trkpt lat="49.06283" lon="0.91417">
        <ele>151</ele>
        <time>2008-01-22T00:00:00Z</time>
      </trkpt>
      <trkpt lat="49.06297" lon="0.91462">
        <ele>151</ele>
        <time>2008-01-22T00:00:00Z</time>
      </trkpt>
      <trkpt lat="49.06295" lon="0.91481">
        <ele>151</ele>
        <time>2008-01-22T00:00:00Z</time>
      </trkpt>
      <trkpt lat="49.06284" lon="0.915">
        <ele>151</ele>
        <time>2008-01-22T00:00:00Z</time>
      </trkpt>
      <trkpt lat="49.06236" lon="0.91532">
        <ele>151</ele>
        <time>2008-01-22T00:00:00Z</time>
      </trkpt>
      <trkpt lat="49.06119" lon="0.91599">
        <ele>150</ele>
        <time>2008-01-22T00:00:00Z</time>
      </trkpt>
      <trkpt lat="49.061" lon="0.91615">
        <ele>150</ele>
        <time>2008-01-22T00:00:00Z</time>
      </trkpt>
      <trkpt lat="49.05977" lon="0.91775">
        <ele>150</ele>
        <time>2008-01-22T00:00:00Z</time>
      </trkpt>
      <trkpt lat="49.05941" lon="0.91842">
        <ele>150</ele>
        <time>2008-01-22T00:00:00Z</time>
      </trkpt>
      <trkpt lat="49.05792" lon="0.92122">
        <ele>150</ele>
        <time>2008-01-22T00:00:00Z</time>
      </trkpt>
      <trkpt lat="49.05617" lon="0.92449">
        <ele>151</ele>
        <time>2008-01-22T00:00:00Z</time>
      </trkpt>
      <trkpt lat="49.05589" lon="0.92483">
        <ele>151</ele>
        <time>2008-01-22T00:00:00Z</time>
      </trkpt>
      <trkpt lat="49.05556" lon="0.92522">
        <ele>151</ele>
        <time>2008-01-22T00:00:00Z</time>
      </trkpt>
      <trkpt lat="49.05532" lon="0.9256">
        <ele>150</ele>
        <time>2008-01-22T00:00:00Z</time>
      </trkpt>
      <trkpt lat="49.05496" lon="0.92632">
        <ele>150</ele>
        <time>2008-01-22T00:00:00Z</time>
      </trkpt>
      <trkpt lat="49.0548" lon="0.92654">
        <ele>151</ele>
        <time>2008-01-22T00:00:00Z</time>
      </trkpt>
      <trkpt lat="49.05464" lon="0.92666">
        <ele>150</ele>
        <time>2008-01-22T00:00:00Z</time>
      </trkpt>
      <trkpt lat="49.05445" lon="0.92671">
        <ele>150</ele>
        <time>2008-01-22T00:00:00Z</time>
      </trkpt>
      <trkpt lat="49.05407" lon="0.92674">
        <ele>149</ele>
        <time>2008-01-22T00:00:00Z</time>
      </trkpt>
      <trkpt lat="49.05383" lon="0.92681">
        <ele>150</ele>
        <time>2008-01-22T00:00:00Z</time>
      </trkpt>
      <trkpt lat="49.05366" lon="0.92699">
        <ele>150</ele>
        <time>2008-01-22T00:00:00Z</time>
      </trkpt>
      <trkpt lat="49.0535" lon="0.92724">
        <ele>151</ele>
        <time>2008-01-22T00:00:00Z</time>
      </trkpt>
      <trkpt lat="49.05348" lon="0.92749">
        <ele>151</ele>
        <time>2008-01-22T00:00:00Z</time>
      </trkpt>
      <trkpt lat="49.05354" lon="0.92797">
        <ele>152</ele>
        <time>2008-01-22T00:00:00Z</time>
      </trkpt>
      <trkpt lat="49.05363" lon="0.92889">
        <ele>152</ele>
        <time>2008-01-22T00:00:00Z</time>
      </trkpt>
      <trkpt lat="49.05362" lon="0.9292">
        <ele>152</ele>
        <time>2008-01-22T00:00:00Z</time>
      </trkpt>
      <trkpt lat="49.05357" lon="0.92942">
        <ele>152</ele>
        <time>2008-01-22T00:00:00Z</time>
      </trkpt>
      <trkpt lat="49.05339" lon="0.93004">
        <ele>153</ele>
        <time>2008-01-22T00:00:00Z</time>
      </trkpt>
      <trkpt lat="49.05318" lon="0.93084">
        <ele>154</ele>
        <time>2008-01-22T00:00:00Z</time>
      </trkpt>
      <trkpt lat="49.05262" lon="0.93298">
        <ele>152</ele>
        <time>2008-01-22T00:00:00Z</time>
      </trkpt>
      <trkpt lat="49.05254" lon="0.93346">
        <ele>152</ele>
        <time>2008-01-22T00:00:00Z</time>
      </trkpt>
      <trkpt lat="49.05248" lon="0.93392">
        <ele>153</ele>
        <time>2008-01-22T00:00:00Z</time>
      </trkpt>
      <trkpt lat="49.05231" lon="0.93656">
        <ele>152</ele>
        <time>2008-01-22T00:00:00Z</time>
      </trkpt>
      <trkpt lat="49.05196" lon="0.9423">
        <ele>150</ele>
        <time>2008-01-22T00:00:00Z</time>
      </trkpt>
      <trkpt lat="49.05169" lon="0.94655">
        <ele>148</ele>
        <time>2008-01-22T00:00:00Z</time>
      </trkpt>
      <trkpt lat="49.0517" lon="0.94712">
        <ele>148</ele>
        <time>2008-01-22T00:00:00Z</time>
      </trkpt>
      <trkpt lat="49.05178" lon="0.94778">
        <ele>148</ele>
        <time>2008-01-22T00:00:00Z</time>
      </trkpt>
      <trkpt lat="49.05192" lon="0.94846">
        <ele>148</ele>
        <time>2008-01-22T00:00:00Z</time>
      </trkpt>
      <trkpt lat="49.0529" lon="0.95198">
        <ele>145</ele>
        <time>2008-01-22T00:00:00Z</time>
      </trkpt>
      <trkpt lat="49.05414" lon="0.95649">
        <ele>141</ele>
        <time>2008-01-22T00:00:00Z</time>
      </trkpt>
      <trkpt lat="49.05427" lon="0.95709">
        <ele>141</ele>
        <time>2008-01-22T00:00:00Z</time>
      </trkpt>
      <trkpt lat="49.05446" lon="0.9584">
        <ele>141</ele>
        <time>2008-01-22T00:00:00Z</time>
      </trkpt>
      <trkpt lat="49.05453" lon="0.95872">
        <ele>141</ele>
        <time>2008-01-22T00:00:00Z</time>
      </trkpt>
      <trkpt lat="49.05474" lon="0.95941">
        <ele>141</ele>
        <time>2008-01-22T00:00:00Z</time>
      </trkpt>
      <trkpt lat="49.05485" lon="0.95979">
        <ele>140</ele>
        <time>2008-01-22T00:00:00Z</time>
      </trkpt>
      <trkpt lat="49.05486" lon="0.96008">
        <ele>140</ele>
        <time>2008-01-22T00:00:00Z</time>
      </trkpt>
      <trkpt lat="49.05483" lon="0.96041">
        <ele>140</ele>
        <time>2008-01-22T00:00:00Z</time>
      </trkpt>
      <trkpt lat="49.05477" lon="0.96065">
        <ele>140</ele>
        <time>2008-01-22T00:00:00Z</time>
      </trkpt>
      <trkpt lat="49.05467" lon="0.96089">
        <ele>141</ele>
        <time>2008-01-22T00:00:00Z</time>
      </trkpt>
      <trkpt lat="49.0545" lon="0.9611">
        <ele>141</ele>
        <time>2008-01-22T00:00:00Z</time>
      </trkpt>
      <trkpt lat="49.0541" lon="0.96163">
        <ele>142</ele>
        <time>2008-01-22T00:00:00Z</time>
      </trkpt>
      <trkpt lat="49.0537" lon="0.9621">
        <ele>143</ele>
        <time>2008-01-22T00:00:00Z</time>
      </trkpt>
      <trkpt lat="49.05369" lon="0.96229">
        <ele>143</ele>
        <time>2008-01-22T00:00:00Z</time>
      </trkpt>
      <trkpt lat="49.05372" lon="0.96241">
        <ele>143</ele>
        <time>2008-01-22T00:00:00Z</time>
      </trkpt>
      <trkpt lat="49.05432" lon="0.96385">
        <ele>141</ele>
        <time>2008-01-22T00:00:00Z</time>
      </trkpt>
      <trkpt lat="49.05443" lon="0.96404">
        <ele>141</ele>
        <time>2008-01-22T00:00:00Z</time>
      </trkpt>
      <trkpt lat="49.05461" lon="0.96417">
        <ele>141</ele>
        <time>2008-01-22T00:00:00Z</time>
      </trkpt>
      <trkpt lat="49.05492" lon="0.96424">
        <ele>141</ele>
        <time>2008-01-22T00:00:00Z</time>
      </trkpt>
      <trkpt lat="49.05504" lon="0.9643">
        <ele>141</ele>
        <time>2008-01-22T00:00:00Z</time>
      </trkpt>
      <trkpt lat="49.05515" lon="0.96445">
        <ele>140</ele>
        <time>2008-01-22T00:00:00Z</time>
      </trkpt>
      <trkpt lat="49.05546" lon="0.96517">
        <ele>140</ele>
        <time>2008-01-22T00:00:00Z</time>
      </trkpt>
      <trkpt lat="49.05557" lon="0.96537">
        <ele>140</ele>
        <time>2008-01-22T00:00:00Z</time>
      </trkpt>
      <trkpt lat="49.05575" lon="0.96565">
        <ele>140</ele>
        <time>2008-01-22T00:00:00Z</time>
      </trkpt>
      <trkpt lat="49.056" lon="0.96596">
        <ele>139</ele>
        <time>2008-01-22T00:00:00Z</time>
      </trkpt>
      <trkpt lat="49.05668" lon="0.96673">
        <ele>139</ele>
        <time>2008-01-22T00:00:00Z</time>
      </trkpt>
      <trkpt lat="49.057" lon="0.96716">
        <ele>139</ele>
        <time>2008-01-22T00:00:00Z</time>
      </trkpt>
      <trkpt lat="49.05742" lon="0.96777">
        <ele>139</ele>
        <time>2008-01-22T00:00:00Z</time>
      </trkpt>
      <trkpt lat="49.05791" lon="0.96839">
        <ele>140</ele>
        <time>2008-01-22T00:00:00Z</time>
      </trkpt>
      <trkpt lat="49.05865" lon="0.96928">
        <ele>141</ele>
        <time>2008-01-22T00:00:00Z</time>
      </trkpt>
      <trkpt lat="49.05865" lon="0.96942">
        <ele>141</ele>
        <time>2008-01-22T00:00:00Z</time>
      </trkpt>
      <trkpt lat="49.05729" lon="0.97299">
        <ele>142</ele>
        <time>2008-01-22T00:00:00Z</time>
      </trkpt>
      <trkpt lat="49.05652" lon="0.97512">
        <ele>143</ele>
        <time>2008-01-22T00:00:00Z</time>
      </trkpt>
      <trkpt lat="49.0569" lon="0.97601">
        <ele>145</ele>
        <time>2008-01-22T00:00:00Z</time>
      </trkpt>
      <trkpt lat="49.05829" lon="0.97914">
        <ele>149</ele>
        <time>2008-01-22T00:00:00Z</time>
      </trkpt>
      <trkpt lat="49.05909" lon="0.98095">
        <ele>154</ele>
        <time>2008-01-22T00:00:00Z</time>
      </trkpt>
      <trkpt lat="49.05921" lon="0.98106">
        <ele>153</ele>
        <time>2008-01-22T00:00:00Z</time>
      </trkpt>
      <trkpt lat="49.05934" lon="0.98104">
        <ele>153</ele>
        <time>2008-01-22T00:00:00Z</time>
      </trkpt>
      <trkpt lat="49.05946" lon="0.98095">
        <ele>153</ele>
        <time>2008-01-22T00:00:00Z</time>
      </trkpt>
      <trkpt lat="49.06019" lon="0.98027">
        <ele>152</ele>
        <time>2008-01-22T00:00:00Z</time>
      </trkpt>
      <trkpt lat="49.06031" lon="0.98024">
        <ele>152</ele>
        <time>2008-01-22T00:00:00Z</time>
      </trkpt>
      <trkpt lat="49.06042" lon="0.9803">
        <ele>152</ele>
        <time>2008-01-22T00:00:00Z</time>
      </trkpt>
      <trkpt lat="49.06102" lon="0.98172">
        <ele>150</ele>
        <time>2008-01-22T00:00:00Z</time>
      </trkpt>
      <trkpt lat="49.06122" lon="0.98217">
        <ele>151</ele>
        <time>2008-01-22T00:00:00Z</time>
      </trkpt>
      <trkpt lat="49.06135" lon="0.98228">
        <ele>151</ele>
        <time>2008-01-22T00:00:00Z</time>
      </trkpt>
      <trkpt lat="49.06149" lon="0.98237">
        <ele>151</ele>
        <time>2008-01-22T00:00:00Z</time>
      </trkpt>
      <trkpt lat="49.06308" lon="0.98302">
        <ele>149</ele>
        <time>2008-01-22T00:00:00Z</time>
      </trkpt>
      <trkpt lat="49.06593" lon="0.98422">
        <ele>145</ele>
        <time>2008-01-22T00:00:00Z</time>
      </trkpt>
      <trkpt lat="49.06608" lon="0.98421">
        <ele>145</ele>
        <time>2008-01-22T00:00:00Z</time>
      </trkpt>
      <trkpt lat="49.0668" lon="0.98403">
        <ele>144</ele>
        <time>2008-01-22T00:00:00Z</time>
      </trkpt>
      <trkpt lat="49.06686" lon="0.98408">
        <ele>144</ele>
        <time>2008-01-22T00:00:00Z</time>
      </trkpt>
      <trkpt lat="49.06692" lon="0.98419">
        <ele>144</ele>
        <time>2008-01-22T00:00:00Z</time>
      </trkpt>
      <trkpt lat="49.06749" lon="0.98582">
        <ele>142</ele>
        <time>2008-01-22T00:00:00Z</time>
      </trkpt>
      <trkpt lat="49.06764" lon="0.98605">
        <ele>142</ele>
        <time>2008-01-22T00:00:00Z</time>
      </trkpt>
      <trkpt lat="49.06777" lon="0.98613">
        <ele>141</ele>
        <time>2008-01-22T00:00:00Z</time>
      </trkpt>
      <trkpt lat="49.068" lon="0.98614">
        <ele>141</ele>
        <time>2008-01-22T00:00:00Z</time>
      </trkpt>
      <trkpt lat="49.06875" lon="0.9864">
        <ele>140</ele>
        <time>2008-01-22T00:00:00Z</time>
      </trkpt>
      <trkpt lat="49.06883" lon="0.98631">
        <ele>140</ele>
        <time>2008-01-22T00:00:00Z</time>
      </trkpt>
      <trkpt lat="49.06913" lon="0.98595">
        <ele>139</ele>
        <time>2008-01-22T00:00:00Z</time>
      </trkpt>
      <trkpt lat="49.07123" lon="0.98474">
        <ele>139</ele>
        <time>2008-01-22T00:00:00Z</time>
      </trkpt>
      <trkpt lat="49.07152" lon="0.98466">
        <ele>139</ele>
        <time>2008-01-22T00:00:00Z</time>
      </trkpt>
      <trkpt lat="49.07205" lon="0.98463">
        <ele>140</ele>
        <time>2008-01-22T00:00:00Z</time>
      </trkpt>
      <trkpt lat="49.07223" lon="0.98456">
        <ele>140</ele>
        <time>2008-01-22T00:00:00Z</time>
      </trkpt>
      <trkpt lat="49.07388" lon="0.9838">
        <ele>138</ele>
        <time>2008-01-22T00:00:00Z</time>
      </trkpt>
      <trkpt lat="49.07405" lon="0.98378">
        <ele>138</ele>
        <time>2008-01-22T00:00:00Z</time>
      </trkpt>
      <trkpt lat="49.07484" lon="0.98399">
        <ele>139</ele>
        <time>2008-01-22T00:00:00Z</time>
      </trkpt>
      <trkpt lat="49.07507" lon="0.98403">
        <ele>139</ele>
        <time>2008-01-22T00:00:00Z</time>
      </trkpt>
      <trkpt lat="49.07523" lon="0.98399">
        <ele>139</ele>
        <time>2008-01-22T00:00:00Z</time>
      </trkpt>
      <trkpt lat="49.0761" lon="0.98354">
        <ele>138</ele>
        <time>2008-01-22T00:00:00Z</time>
      </trkpt>
      <trkpt lat="49.07628" lon="0.9835">
        <ele>139</ele>
        <time>2008-01-22T00:00:00Z</time>
      </trkpt>
      <trkpt lat="49.07656" lon="0.98347">
        <ele>139</ele>
        <time>2008-01-22T00:00:00Z</time>
      </trkpt>
      <trkpt lat="49.0765" lon="0.98205">
        <ele>140</ele>
        <time>2008-01-22T00:00:00Z</time>
      </trkpt>
      <trkpt lat="49.07643" lon="0.98181">
        <ele>140</ele>
        <time>2008-01-22T00:00:00Z</time>
      </trkpt>
      <trkpt lat="49.07636" lon="0.98134">
        <ele>140</ele>
        <time>2008-01-22T00:00:00Z</time>
      </trkpt>
      <trkpt lat="49.07635" lon="0.98097">
        <ele>140</ele>
        <time>2008-01-22T00:00:00Z</time>
      </trkpt>
      <trkpt lat="49.07636" lon="0.98039">
        <ele>139</ele>
        <time>2008-01-22T00:00:00Z</time>
      </trkpt>
      <trkpt lat="49.07635" lon="0.97999">
        <ele>139</ele>
        <time>2008-01-22T00:00:00Z</time>
      </trkpt>
      <trkpt lat="49.07633" lon="0.97974">
        <ele>139</ele>
        <time>2008-01-22T00:00:00Z</time>
      </trkpt>
      <trkpt lat="49.07628" lon="0.97947">
        <ele>139</ele>
        <time>2008-01-22T00:00:00Z</time>
      </trkpt>
      <trkpt lat="49.07607" lon="0.97847">
        <ele>138</ele>
        <time>2008-01-22T00:00:00Z</time>
      </trkpt>
      <trkpt lat="49.07604" lon="0.97822">
        <ele>138</ele>
        <time>2008-01-22T00:00:00Z</time>
      </trkpt>
      <trkpt lat="49.07608" lon="0.97808">
        <ele>139</ele>
        <time>2008-01-22T00:00:00Z</time>
      </trkpt>
      <trkpt lat="49.07615" lon="0.97807">
        <ele>139</ele>
        <time>2008-01-22T00:00:00Z</time>
      </trkpt>
      <trkpt lat="49.07673" lon="0.97837">
        <ele>139</ele>
        <time>2008-01-22T00:00:00Z</time>
      </trkpt>
      <trkpt lat="49.0768" lon="0.9785">
        <ele>139</ele>
        <time>2008-01-22T00:00:00Z</time>
      </trkpt>
      <trkpt lat="49.07691" lon="0.97915">
        <ele>139</ele>
        <time>2008-01-22T00:00:00Z</time>
      </trkpt>
      <trkpt lat="49.07705" lon="0.98027">
        <ele>139</ele>
        <time>2008-01-22T00:00:00Z</time>
      </trkpt>
      <trkpt lat="49.07717" lon="0.98085">
        <ele>139</ele>
        <time>2008-01-22T00:00:00Z</time>
      </trkpt>
      <trkpt lat="49.0775" lon="0.98194">
        <ele>139</ele>
        <time>2008-01-22T00:00:00Z</time>
      </trkpt>
      <trkpt lat="49.0776" lon="0.98209">
        <ele>139</ele>
        <time>2008-01-22T00:00:00Z</time>
      </trkpt>
      <trkpt lat="49.07903" lon="0.98138">
        <ele>138</ele>
        <time>2008-01-22T00:00:00Z</time>
      </trkpt>
      <trkpt lat="49.07919" lon="0.98138">
        <ele>137</ele>
        <time>2008-01-22T00:00:00Z</time>
      </trkpt>
      <trkpt lat="49.07933" lon="0.98145">
        <ele>137</ele>
        <time>2008-01-22T00:00:00Z</time>
      </trkpt>
      <trkpt lat="49.07959" lon="0.98178">
        <ele>137</ele>
        <time>2008-01-22T00:00:00Z</time>
      </trkpt>
      <trkpt lat="49.07981" lon="0.98203">
        <ele>137</ele>
        <time>2008-01-22T00:00:00Z</time>
      </trkpt>
      <trkpt lat="49.08017" lon="0.98237">
        <ele>137</ele>
        <time>2008-01-22T00:00:00Z</time>
      </trkpt>
      <trkpt lat="49.08224" lon="0.98401">
        <ele>135</ele>
        <time>2008-01-22T00:00:00Z</time>
      </trkpt>
      <trkpt lat="49.08415" lon="0.98555">
        <ele>135</ele>
        <time>2008-01-22T00:00:00Z</time>
      </trkpt>
      <trkpt lat="49.08467" lon="0.98609">
        <ele>134</ele>
        <time>2008-01-22T00:00:00Z</time>
      </trkpt>
      <trkpt lat="49.08487" lon="0.98624">
        <ele>134</ele>
        <time>2008-01-22T00:00:00Z</time>
      </trkpt>
      <trkpt lat="49.08569" lon="0.98674">
        <ele>133</ele>
        <time>2008-01-22T00:00:00Z</time>
      </trkpt>
      <trkpt lat="49.08689" lon="0.98762">
        <ele>138</ele>
        <time>2008-01-22T00:00:00Z</time>
      </trkpt>
      <trkpt lat="49.08732" lon="0.98795">
        <ele>139</ele>
        <time>2008-01-22T00:00:00Z</time>
      </trkpt>
      <trkpt lat="49.08765" lon="0.9881">
        <ele>139</ele>
        <time>2008-01-22T00:00:00Z</time>
      </trkpt>
      <trkpt lat="49.08798" lon="0.98823">
        <ele>139</ele>
        <time>2008-01-22T00:00:00Z</time>
      </trkpt>
      <trkpt lat="49.08809" lon="0.98829">
        <ele>139</ele>
        <time>2008-01-22T00:00:00Z</time>
      </trkpt>
      <trkpt lat="49.08817" lon="0.98842">
        <ele>139</ele>
        <time>2008-01-22T00:00:00Z</time>
      </trkpt>
      <trkpt lat="49.08821" lon="0.98857">
        <ele>140</ele>
        <time>2008-01-22T00:00:00Z</time>
      </trkpt>
      <trkpt lat="49.08838" lon="0.98922">
        <ele>140</ele>
        <time>2008-01-22T00:00:00Z</time>
      </trkpt>
      <trkpt lat="49.08861" lon="0.98998">
        <ele>139</ele>
        <time>2008-01-22T00:00:00Z</time>
      </trkpt>
      <trkpt lat="49.08893" lon="0.99075">
        <ele>138</ele>
        <time>2008-01-22T00:00:00Z</time>
      </trkpt>
      <trkpt lat="49.08947" lon="0.99187">
        <ele>137</ele>
        <time>2008-01-22T00:00:00Z</time>
      </trkpt>
      <trkpt lat="49.09001" lon="0.9928">
        <ele>137</ele>
        <time>2008-01-22T00:00:00Z</time>
      </trkpt>
      <trkpt lat="49.09191" lon="0.9957">
        <ele>137</ele>
        <time>2008-01-22T00:00:00Z</time>
      </trkpt>
      <trkpt lat="49.09322" lon="0.99769">
        <ele>137</ele>
        <time>2008-01-22T00:00:00Z</time>
      </trkpt>
      <trkpt lat="49.09358" lon="0.99811">
        <ele>137</ele>
        <time>2008-01-22T00:00:00Z</time>
      </trkpt>
      <trkpt lat="49.09433" lon="0.99892">
        <ele>138</ele>
        <time>2008-01-22T00:00:00Z</time>
      </trkpt>
      <trkpt lat="49.09468" lon="0.9994">
        <ele>139</ele>
        <time>2008-01-22T00:00:00Z</time>
      </trkpt>
      <trkpt lat="49.09514" lon="1.00004">
        <ele>139</ele>
        <time>2008-01-22T00:00:00Z</time>
      </trkpt>
      <trkpt lat="49.09533" lon="1.00027">
        <ele>139</ele>
        <time>2008-01-22T00:00:00Z</time>
      </trkpt>
      <trkpt lat="49.09713" lon="1.00179">
        <ele>139</ele>
        <time>2008-01-22T00:00:00Z</time>
      </trkpt>
      <trkpt lat="49.09774" lon="1.00229">
        <ele>139</ele>
        <time>2008-01-22T00:00:00Z</time>
      </trkpt>
      <trkpt lat="49.09802" lon="1.00243">
        <ele>139</ele>
        <time>2008-01-22T00:00:00Z</time>
      </trkpt>
      <trkpt lat="49.09836" lon="1.00246">
        <ele>139</ele>
        <time>2008-01-22T00:00:00Z</time>
      </trkpt>
      <trkpt lat="49.09932" lon="1.00252">
        <ele>140</ele>
        <time>2008-01-22T00:00:00Z</time>
      </trkpt>
      <trkpt lat="49.09953" lon="1.0025">
        <ele>140</ele>
        <time>2008-01-22T00:00:00Z</time>
      </trkpt>
      <trkpt lat="49.10104" lon="1.0019">
        <ele>141</ele>
        <time>2008-01-22T00:00:00Z</time>
      </trkpt>
      <trkpt lat="49.10298" lon="1.00097">
        <ele>140</ele>
        <time>2008-01-22T00:00:00Z</time>
      </trkpt>
      <trkpt lat="49.10328" lon="1.00088">
        <ele>140</ele>
        <time>2008-01-22T00:00:00Z</time>
      </trkpt>
      <trkpt lat="49.10355" lon="1.00088">
        <ele>140</ele>
        <time>2008-01-22T00:00:00Z</time>
      </trkpt>
      <trkpt lat="49.10417" lon="1.00094">
        <ele>141</ele>
        <time>2008-01-22T00:00:00Z</time>
      </trkpt>
      <trkpt lat="49.10497" lon="1.001">
        <ele>140</ele>
        <time>2008-01-22T00:00:00Z</time>
      </trkpt>
      <trkpt lat="49.10521" lon="1.00111">
        <ele>139</ele>
        <time>2008-01-22T00:00:00Z</time>
      </trkpt>
      <trkpt lat="49.10535" lon="1.00126">
        <ele>139</ele>
        <time>2008-01-22T00:00:00Z</time>
      </trkpt>
      <trkpt lat="49.10542" lon="1.00147">
        <ele>139</ele>
        <time>2008-01-22T00:00:00Z</time>
      </trkpt>
      <trkpt lat="49.10554" lon="1.00181">
        <ele>140</ele>
        <time>2008-01-22T00:00:00Z</time>
      </trkpt>
      <trkpt lat="49.10572" lon="1.00202">
        <ele>140</ele>
        <time>2008-01-22T00:00:00Z</time>
      </trkpt>
      <trkpt lat="49.10598" lon="1.00221">
        <ele>140</ele>
        <time>2008-01-22T00:00:00Z</time>
      </trkpt>
      <trkpt lat="49.10609" lon="1.00239">
        <ele>140</ele>
        <time>2008-01-22T00:00:00Z</time>
      </trkpt>
      <trkpt lat="49.10618" lon="1.00271">
        <ele>140</ele>
        <time>2008-01-22T00:00:00Z</time>
      </trkpt>
      <trkpt lat="49.10633" lon="1.00331">
        <ele>140</ele>
        <time>2008-01-22T00:00:00Z</time>
      </trkpt>
      <trkpt lat="49.10643" lon="1.00315">
        <ele>140</ele>
        <time>2008-01-22T00:00:00Z</time>
      </trkpt>
      <trkpt lat="49.10644" lon="1.00306">
        <ele>140</ele>
        <time>2008-01-22T00:00:00Z</time>
      </trkpt>
      <trkpt lat="49.10731" lon="1.00138">
        <ele>139</ele>
        <time>2008-01-22T00:00:00Z</time>
      </trkpt>
      <trkpt lat="49.10929" lon="0.99742">
        <ele>139</ele>
        <time>2008-01-22T00:00:00Z</time>
      </trkpt>
      <trkpt lat="49.11036" lon="0.9948">
        <ele>141</ele>
        <time>2008-01-22T00:00:00Z</time>
      </trkpt>
      <trkpt lat="49.11221" lon="0.98954">
        <ele>144</ele>
        <time>2008-01-22T00:00:00Z</time>
      </trkpt>
      <trkpt lat="49.1143" lon="0.98361">
        <ele>147</ele>
        <time>2008-01-22T00:00:00Z</time>
      </trkpt>
      <trkpt lat="49.11508" lon="0.98145">
        <ele>148</ele>
        <time>2008-01-22T00:00:00Z</time>
      </trkpt>
      <trkpt lat="49.11512" lon="0.98139">
        <ele>148</ele>
        <time>2008-01-22T00:00:00Z</time>
      </trkpt>
      <trkpt lat="49.11525" lon="0.98105">
        <ele>148</ele>
        <time>2008-01-22T00:00:00Z</time>
      </trkpt>
      <trkpt lat="49.11526" lon="0.98093">
        <ele>148</ele>
        <time>2008-01-22T00:00:00Z</time>
      </trkpt>
      <trkpt lat="49.11629" lon="0.97803">
        <ele>147</ele>
        <time>2008-01-22T00:00:00Z</time>
      </trkpt>
      <trkpt lat="49.11749" lon="0.97459">
        <ele>148</ele>
        <time>2008-01-22T00:00:00Z</time>
      </trkpt>
      <trkpt lat="49.11807" lon="0.97248">
        <ele>146</ele>
        <time>2008-01-22T00:00:00Z</time>
      </trkpt>
      <trkpt lat="49.11944" lon="0.96717">
        <ele>143</ele>
        <time>2008-01-22T00:00:00Z</time>
      </trkpt>
      <trkpt lat="49.12008" lon="0.96473">
        <ele>141</ele>
        <time>2008-01-22T00:00:00Z</time>
      </trkpt>
      <trkpt lat="49.1209" lon="0.96155">
        <ele>143</ele>
        <time>2008-01-22T00:00:00Z</time>
      </trkpt>
      <trkpt lat="49.12128" lon="0.96034">
        <ele>142</ele>
        <time>2008-01-22T00:00:00Z</time>
      </trkpt>
      <trkpt lat="49.12161" lon="0.95956">
        <ele>141</ele>
        <time>2008-01-22T00:00:00Z</time>
      </trkpt>
      <trkpt lat="49.1222" lon="0.95823">
        <ele>140</ele>
        <time>2008-01-22T00:00:00Z</time>
      </trkpt>
      <trkpt lat="49.12225" lon="0.95817">
        <ele>140</ele>
        <time>2008-01-22T00:00:00Z</time>
      </trkpt>
      <trkpt lat="49.12232" lon="0.95802">
        <ele>140</ele>
        <time>2008-01-22T00:00:00Z</time>
      </trkpt>
      <trkpt lat="49.12187" lon="0.95758">
        <ele>139</ele>
        <time>2008-01-22T00:00:00Z</time>
      </trkpt>
      <trkpt lat="49.12151" lon="0.95721">
        <ele>138</ele>
        <time>2008-01-22T00:00:00Z</time>
      </trkpt>
      <trkpt lat="49.12131" lon="0.95696">
        <ele>138</ele>
        <time>2008-01-22T00:00:00Z</time>
      </trkpt>
      <trkpt lat="49.12056" lon="0.95623">
        <ele>137</ele>
        <time>2008-01-22T00:00:00Z</time>
      </trkpt>
      <trkpt lat="49.12014" lon="0.95593">
        <ele>136</ele>
        <time>2008-01-22T00:00:00Z</time>
      </trkpt>
      <trkpt lat="49.1197" lon="0.95555">
        <ele>135</ele>
        <time>2008-01-22T00:00:00Z</time>
      </trkpt>
      <trkpt lat="49.11944" lon="0.95526">
        <ele>134</ele>
        <time>2008-01-22T00:00:00Z</time>
      </trkpt>
      <trkpt lat="49.11811" lon="0.95338">
        <ele>133</ele>
        <time>2008-01-22T00:00:00Z</time>
      </trkpt>
      <trkpt lat="49.11793" lon="0.95307">
        <ele>133</ele>
        <time>2008-01-22T00:00:00Z</time>
      </trkpt>
      <trkpt lat="49.11787" lon="0.9528">
        <ele>134</ele>
        <time>2008-01-22T00:00:00Z</time>
      </trkpt>
      <trkpt lat="49.11785" lon="0.95245">
        <ele>134</ele>
        <time>2008-01-22T00:00:00Z</time>
      </trkpt>
      <trkpt lat="49.11784" lon="0.95195">
        <ele>133</ele>
        <time>2008-01-22T00:00:00Z</time>
      </trkpt>
      <trkpt lat="49.11779" lon="0.95148">
        <ele>133</ele>
        <time>2008-01-22T00:00:00Z</time>
      </trkpt>
      <trkpt lat="49.11767" lon="0.95085">
        <ele>134</ele>
        <time>2008-01-22T00:00:00Z</time>
      </trkpt>
      <trkpt lat="49.11757" lon="0.95054">
        <ele>134</ele>
        <time>2008-01-22T00:00:00Z</time>
      </trkpt>
      <trkpt lat="49.11719" lon="0.94936">
        <ele>135</ele>
        <time>2008-01-22T00:00:00Z</time>
      </trkpt>
      <trkpt lat="49.11708" lon="0.94887">
        <ele>135</ele>
        <time>2008-01-22T00:00:00Z</time>
      </trkpt>
      <trkpt lat="49.11702" lon="0.94844">
        <ele>135</ele>
        <time>2008-01-22T00:00:00Z</time>
      </trkpt>
      <trkpt lat="49.11692" lon="0.94811">
        <ele>134</ele>
        <time>2008-01-22T00:00:00Z</time>
      </trkpt>
      <trkpt lat="49.11678" lon="0.94786">
        <ele>134</ele>
        <time>2008-01-22T00:00:00Z</time>
      </trkpt>
      <trkpt lat="49.11661" lon="0.94752">
        <ele>135</ele>
        <time>2008-01-22T00:00:00Z</time>
      </trkpt>
      <trkpt lat="49.11638" lon="0.94698">
        <ele>135</ele>
        <time>2008-01-22T00:00:00Z</time>
      </trkpt>
      <trkpt lat="49.11626" lon="0.94659">
        <ele>135</ele>
        <time>2008-01-22T00:00:00Z</time>
      </trkpt>
      <trkpt lat="49.11594" lon="0.94553">
        <ele>135</ele>
        <time>2008-01-22T00:00:00Z</time>
      </trkpt>
      <trkpt lat="49.11564" lon="0.94433">
        <ele>136</ele>
        <time>2008-01-22T00:00:00Z</time>
      </trkpt>
      <trkpt lat="49.11552" lon="0.94351">
        <ele>137</ele>
        <time>2008-01-22T00:00:00Z</time>
      </trkpt>
      <trkpt lat="49.11547" lon="0.94298">
        <ele>137</ele>
        <time>2008-01-22T00:00:00Z</time>
      </trkpt>
      <trkpt lat="49.11553" lon="0.94285">
        <ele>137</ele>
        <time>2008-01-22T00:00:00Z</time>
      </trkpt>
      <trkpt lat="49.11567" lon="0.94277">
        <ele>137</ele>
        <time>2008-01-22T00:00:00Z</time>
      </trkpt>
      <trkpt lat="49.11601" lon="0.94268">
        <ele>137</ele>
        <time>2008-01-22T00:00:00Z</time>
      </trkpt>
      <trkpt lat="49.11599" lon="0.94254">
        <ele>137</ele>
        <time>2008-01-22T00:00:00Z</time>
      </trkpt>
      <trkpt lat="49.1152" lon="0.93967">
        <ele>137</ele>
        <time>2008-01-22T00:00:00Z</time>
      </trkpt>
      <trkpt lat="49.115" lon="0.93942">
        <ele>137</ele>
        <time>2008-01-22T00:00:00Z</time>
      </trkpt>
      <trkpt lat="49.11478" lon="0.93886">
        <ele>137</ele>
        <time>2008-01-22T00:00:00Z</time>
      </trkpt>
      <trkpt lat="49.11433" lon="0.93736">
        <ele>138</ele>
        <time>2008-01-22T00:00:00Z</time>
      </trkpt>
      <trkpt lat="49.11422" lon="0.93692">
        <ele>137</ele>
        <time>2008-01-22T00:00:00Z</time>
      </trkpt>
      <trkpt lat="49.11413" lon="0.93624">
        <ele>137</ele>
        <time>2008-01-22T00:00:00Z</time>
      </trkpt>
      <trkpt lat="49.1141" lon="0.93588">
        <ele>137</ele>
        <time>2008-01-22T00:00:00Z</time>
      </trkpt>
      <trkpt lat="49.11413" lon="0.93544">
        <ele>138</ele>
        <time>2008-01-22T00:00:00Z</time>
      </trkpt>
      <trkpt lat="49.11421" lon="0.93471">
        <ele>138</ele>
        <time>2008-01-22T00:00:00Z</time>
      </trkpt>
      <trkpt lat="49.11424" lon="0.93431">
        <ele>138</ele>
        <time>2008-01-22T00:00:00Z</time>
      </trkpt>
      <trkpt lat="49.11422" lon="0.93415">
        <ele>139</ele>
        <time>2008-01-22T00:00:00Z</time>
      </trkpt>
      <trkpt lat="49.11416" lon="0.93396">
        <ele>139</ele>
        <time>2008-01-22T00:00:00Z</time>
      </trkpt>
      <trkpt lat="49.11406" lon="0.93372">
        <ele>140</ele>
        <time>2008-01-22T00:00:00Z</time>
      </trkpt>
      <trkpt lat="49.11392" lon="0.93351">
        <ele>140</ele>
        <time>2008-01-22T00:00:00Z</time>
      </trkpt>
      <trkpt lat="49.11367" lon="0.93321">
        <ele>139</ele>
        <time>2008-01-22T00:00:00Z</time>
      </trkpt>
      <trkpt lat="49.11343" lon="0.93283">
        <ele>139</ele>
        <time>2008-01-22T00:00:00Z</time>
      </trkpt>
      <trkpt lat="49.11299" lon="0.93197">
        <ele>138</ele>
        <time>2008-01-22T00:00:00Z</time>
      </trkpt>
      <trkpt lat="49.11292" lon="0.93191">
        <ele>137</ele>
        <time>2008-01-22T00:00:00Z</time>
      </trkpt>
      <trkpt lat="49.1128" lon="0.93213">
        <ele>137</ele>
        <time>2008-01-22T00:00:00Z</time>
      </trkpt>
      <trkpt lat="49.11247" lon="0.93254">
        <ele>137</ele>
        <time>2008-01-22T00:00:00Z</time>
      </trkpt>
      <trkpt lat="49.11194" lon="0.93313">
        <ele>138</ele>
        <time>2008-01-22T00:00:00Z</time>
      </trkpt>
      <trkpt lat="49.11037" lon="0.93486">
        <ele>138</ele>
        <time>2008-01-22T00:00:00Z</time>
      </trkpt>
      <trkpt lat="49.11011" lon="0.93503">
        <ele>139</ele>
        <time>2008-01-22T00:00:00Z</time>
      </trkpt>
      <trkpt lat="49.10989" lon="0.93506">
        <ele>139</ele>
        <time>2008-01-22T00:00:00Z</time>
      </trkpt>
      <trkpt lat="49.10783" lon="0.93512">
        <ele>139</ele>
        <time>2008-01-22T00:00:00Z</time>
      </trkpt>
      <trkpt lat="49.10652" lon="0.93514">
        <ele>139</ele>
        <time>2008-01-22T00:00:00Z</time>
      </trkpt>
      <trkpt lat="49.10648" lon="0.93522">
        <ele>139</ele>
        <time>2008-01-22T00:00:00Z</time>
      </trkpt>
      <trkpt lat="49.10644" lon="0.93594">
        <ele>139</ele>
        <time>2008-01-22T00:00:00Z</time>
      </trkpt>
      <trkpt lat="49.1064" lon="0.93612">
        <ele>139</ele>
        <time>2008-01-22T00:00:00Z</time>
      </trkpt>
      <trkpt lat="49.10633" lon="0.93626">
        <ele>139</ele>
        <time>2008-01-22T00:00:00Z</time>
      </trkpt>
      <trkpt lat="49.10604" lon="0.93669">
        <ele>138</ele>
        <time>2008-01-22T00:00:00Z</time>
      </trkpt>
      <trkpt lat="49.1058" lon="0.93725">
        <ele>138</ele>
        <time>2008-01-22T00:00:00Z</time>
      </trkpt>
      <trkpt lat="49.10568" lon="0.93785">
        <ele>138</ele>
        <time>2008-01-22T00:00:00Z</time>
      </trkpt>
      <trkpt lat="49.10553" lon="0.93822">
        <ele>139</ele>
        <time>2008-01-22T00:00:00Z</time>
      </trkpt>
      <trkpt lat="49.10537" lon="0.9385">
        <ele>138</ele>
        <time>2008-01-22T00:00:00Z</time>
      </trkpt>
      <trkpt lat="49.10521" lon="0.9386">
        <ele>138</ele>
        <time>2008-01-22T00:00:00Z</time>
      </trkpt>
      <trkpt lat="49.10477" lon="0.93888">
        <ele>138</ele>
        <time>2008-01-22T00:00:00Z</time>
      </trkpt>
      <trkpt lat="49.10466" lon="0.93906">
        <ele>138</ele>
        <time>2008-01-22T00:00:00Z</time>
      </trkpt>
      <trkpt lat="49.10462" lon="0.93921">
        <ele>138</ele>
        <time>2008-01-22T00:00:00Z</time>
      </trkpt>
      <trkpt lat="49.10454" lon="0.9394">
        <ele>138</ele>
        <time>2008-01-22T00:00:00Z</time>
      </trkpt>
      <trkpt lat="49.10441" lon="0.93949">
        <ele>138</ele>
        <time>2008-01-22T00:00:00Z</time>
      </trkpt>
      <trkpt lat="49.10426" lon="0.9396">
        <ele>138</ele>
        <time>2008-01-22T00:00:00Z</time>
      </trkpt>
      <trkpt lat="49.10408" lon="0.93962">
        <ele>139</ele>
        <time>2008-01-22T00:00:00Z</time>
      </trkpt>
      <trkpt lat="49.10396" lon="0.93959">
        <ele>139</ele>
        <time>2008-01-22T00:00:00Z</time>
      </trkpt>
      <trkpt lat="49.10389" lon="0.93948">
        <ele>139</ele>
        <time>2008-01-22T00:00:00Z</time>
      </trkpt>
      <trkpt lat="49.1036" lon="0.93919">
        <ele>140</ele>
        <time>2008-01-22T00:00:00Z</time>
      </trkpt>
      <trkpt lat="49.10338" lon="0.9391">
        <ele>140</ele>
        <time>2008-01-22T00:00:00Z</time>
      </trkpt>
      <trkpt lat="49.10316" lon="0.93908">
        <ele>140</ele>
        <time>2008-01-22T00:00:00Z</time>
      </trkpt>
      <trkpt lat="49.10288" lon="0.93909">
        <ele>140</ele>
        <time>2008-01-22T00:00:00Z</time>
      </trkpt>
      <trkpt lat="49.10269" lon="0.93901">
        <ele>139</ele>
        <time>2008-01-22T00:00:00Z</time>
      </trkpt>
      <trkpt lat="49.10258" lon="0.93893">
        <ele>140</ele>
        <time>2008-01-22T00:00:00Z</time>
      </trkpt>
      <trkpt lat="49.10249" lon="0.93863">
        <ele>140</ele>
        <time>2008-01-22T00:00:00Z</time>
      </trkpt>
      <trkpt lat="49.10259" lon="0.93807">
        <ele>140</ele>
        <time>2008-01-22T00:00:00Z</time>
      </trkpt>
      <trkpt lat="49.10247" lon="0.93801">
        <ele>140</ele>
        <time>2008-01-22T00:00:00Z</time>
      </trkpt>
      <trkpt lat="49.10242" lon="0.93818">
        <ele>140</ele>
        <time>2008-01-22T00:00:00Z</time>
      </trkpt>
      <trkpt lat="49.10238" lon="0.93819">
        <ele>140</ele>
        <time>2008-01-22T00:00:00Z</time>
      </trkpt>
      <trkpt lat="49.10223" lon="0.93813">
        <ele>140</ele>
        <time>2008-01-22T00:00:00Z</time>
      </trkpt>
      <trkpt lat="49.10208" lon="0.93825">
        <ele>140</ele>
        <time>2008-01-22T00:00:00Z</time>
      </trkpt>
    </trkseg>
  </trk>
</gpx>